Location: Barcelona
(41.3829°N, 2.1774°E)
Time: 17:42:09
(UTC+00:00)

ISS - Pass Details

Date: 08 May 2026
Orbit: 414 x 424 km, 51.6° (Epoch: 17 May)

Event Time Altitude Azimuth Distance (km) Brightness Sun altitude
Rises 20:24:59 0° 229° (SW) 2,336 0.2 -14.9°
Reaches altitude 10° 20:27:04 10° 227° (SW) 1,478 -0.9 -15.2°
Maximum altitude 20:30:22 74° 143° (SE) 433 -3.9 -15.7°
Drops below altitude 10° 20:33:42 10° 57° (ENE) 1,489 -1.1 -16.2°
Enters shadow 20:35:03 - 56° (ENE) 2,041 -0.4 -16.3°
